Regional Weather Roundup
Issued by NWS

Home | Current Version | Previous Version | Text Only | Print | Product List | Glossary On
Versions: 1 2 3 4 5 6 7 8 9 10 11 12 13 14 15 16 17 18 19 20 21 22 23 24 25 26 27 28 29 30 31 32 33 34 35 36 37 38 39 40 41 42 43 44 45 46 47 48 49 50
000
ASUS44 KFWD 180815
RWRTX
NORTH TEXAS HOURLY WEATHER ROUNDUP
NATIONAL WEATHER SERVICE FORT WORTH TX
300 AM CDT THU SEP 18 2014

NOTE: "FAIR" INDICATES FEW OR NO CLOUDS BELOW 12,000 FEET WITH NO
SIGNIFICANT WEATHER AND/OR OBSTRUCTIONS TO VISIBILITY.

TXZ118-119-180900-
DALLAS/FORT WORTH METROPLEX

CITY           SKY/WX    TMP DP  RH WIND       PRES   REMARKS
DFW AIRPORT    MOCLDY    76  71  85 CALM      29.89R
DALLAS LOVE    MOCLDY    77  72  84 SW7       29.89S
FTW MEACHAM    PTCLDY    75  71  87 S3        29.88F
DAL-EXECUTIVE  MOCLDY    76  72  87 S3        29.89S
FTW-ALLIANCE   PTCLDY    74  72  93 NW3       29.89S
FTW-NAS-JRB    MOCLDY    78  70  76 VRB3      29.93S
FTW-SPINKS     MOCLDY    73  70  88 S3        29.90F
ARLINGTON      MOCLDY    75  70  84 CALM      29.89S
GRAND PRAIRIE  MOCLDY    75  69  81 CALM      29.90F
ADDISON        MOCLDY    78  71  78 CALM      29.92S
MESQUITE       PTCLDY    74  72  92 S3        29.90S
LANCASTER      PTCLDY    73  70  89 CALM      29.90S
$$

TXZ091>094-102>105-117-120-121-131>134-180900-
NORTH CENTRAL TEXAS

CITY           SKY/WX    TMP DP  RH WIND       PRES   REMARKS
SHRMAN/DENISON CLOUDY    76  70  79 E20G26    29.94R
GAINESVILLE    MOCLDY    75  70  85 CALM      29.92S
BOWIE          CLOUDY    73  70  91 CALM      29.91S
BRIDGEPORT     MOCLDY    73  73 100 CALM      29.92S
DECATUR        MOCLDY    74  71  90 SE5       29.91F
DENTON         MOCLDY    75  71  87 S6        29.89S
MCKINNEY       MOCLDY    76  70  82 CALM      29.90S
GREENVILLE     MOCLDY    77  68  73 CALM      29.91R
ROCKWALL       MOCLDY    74  72  92 CALM      29.89S
TERRELL        MOCLDY    77  72  84 S3        29.90S
WAXAHACHIE     MOCLDY    74  72  93 S3        29.90F
CLEBURNE       MOCLDY    72  72 100 S5        29.91F
GRANBURY       CLOUDY    75  71  89 SE5       29.90F
$$

TXZ083>090-098>101-113>116-127>130-139>142-154-155-180900-
WESTERN NORTH TEXAS

CITY           SKY/WX    TMP DP  RH WIND       PRES   REMARKS
WICHITA FALLS  CLOUDY    72  69  90 SE6       29.89F
WF-KICKAPOO    CLOUDY    74  69  86 CALM      29.92R
VERNON         CLOUDY    75  68  78 CALM      29.93R
ABILENE        CLOUDY    73  68  84 SW3       29.93S
ABILENE-DYESS  CLOUDY    73  67  81 S2        29.92S
BRECKENRIDGE   CLOUDY    74  72  94 CALM      29.91S
GRAHAM         CLOUDY    73  70  88 CALM      29.90R
MINERAL WELLS  CLOUDY    73  71  93 SE3       29.89F
STEPHENVILLE   CLOUDY    72  69  91 SE3       29.94S
COMANCHE       MOCLDY    72  71  99 S3        29.92S
BROWNWOOD      CLOUDY    73  72  94 SE6       29.93R
COLEMAN        MOCLDY    72  69  91 S3        29.93F
BRADY          CLOUDY    72  72 100 E8        29.93F
$$

TXZ143>147-156>162-174-175-180900-
CENTRAL TEXAS

CITY           SKY/WX    TMP DP  RH WIND       PRES   REMARKS
WACO           CLOUDY    74  72  93 CALM      29.89S
WACO-MCGREGOR  CLOUDY    73  68  83 CALM      29.90S
HILLSBORO      CLOUDY    73  71  92 S3        29.89F
CORSICANA      CLOUDY    74  72  93 NE3       29.90S
MEXIA          CLOUDY    73  72  98 CALM      29.88S
HEARNE         CLOUDY    74  73  97 E3        29.87S
CAMERON        CLOUDY    75  74  97 CALM      29.87R
TEMPLE         MOCLDY    73  70  88 S7        29.88F
KILLEEN        PTCLDY    72  70  94 S3        29.88F
KILLEEN-SKYLRK MOCLDY    72  66  83 CALM      29.88F
FORT HOOD      CLOUDY    74  72  93 CALM      29.89F
GATESVILLE     PTCLDY    73  73 100 CALM      29.91F
HAMILTON       PTCLDY    72  72 100 S7        29.92S
LAMPASAS       PTCLDY    71  69  95 W3        29.89F
$$

TXZ095>097-106>112-122>126-135>138-148>153-164>167-180900-
EAST TEXAS

CITY           SKY/WX    TMP DP  RH WIND       PRES   REMARKS
PARIS          CLOUDY    72  63  73 NE10G16   29.94F
SULPHUR SPRNGS MOCLDY    75  70  84 CALM      29.94R
MOUNT PLEASANT MOCLDY    71  69  93 CALM      29.92S
GILMER         CLOUDY    73  73 100 CALM      29.92S
MINEOLA        CLOUDY    75  72  88 CALM      29.91S
TYLER          CLOUDY    76  71  85 SW3       29.90S
LONGVIEW       CLOUDY    74  70  87 CALM      29.89S
MARSHALL       CLOUDY    76  72  87 CALM      29.92F
ATHENS         CLOUDY    72  70  94 CALM      29.89S
PALESTINE      CLOUDY    73  73 100 CALM      29.90S
JACKSONVILLE   CLOUDY    74  73  96 S3        29.91F
HENDERSON      CLOUDY    72  72  99 CALM      29.91F
NACOGDOCHES    CLOUDY    73  72  94 CALM      29.90S
LUFKIN         FOG       75  72  90 SE5       29.89S VSB 1/2
$$

SUPPLEMENTAL OBSERVATIONS (CENTRAL)

CITY           SKY/WX    TMP DP  RH WIND       PRES   REMARKS
LAKE TEXOMA      N/A     72  63  73 E10         N/A
CADDO GRASSLND   N/A     66  61  82 SE3G21      N/A
PAT MAYSE LAKE   N/A     66  64  94 NE5         N/A
GREENVILLE       N/A     75  70  83 N12G20      N/A
PALESTINE        N/A     73  72  94 CALM        N/A
LAKE LIMESTONE   N/A     75  73  94 S2          N/A
MCGREGOR         N/A     73  70  88 S5          N/A
TEMPLE           N/A     73  70  88 CALM        N/A
$$

SUPPLEMENTAL OBSERVATIONS (WEST)

CITY           SKY/WX    TMP DP  RH WIND       PRES   REMARKS
MILLERS CREEK    N/A     73  68  83 S5          N/A
POSSUM KINGDOM   N/A     73  68  83 S3G12       N/A
LBJ GRASSLAND    N/A     73  68  83 SE5         N/A
GRANBURY         N/A     73  68  83 S6          N/A
COMANCHE         N/A     72  68  88 S5G13       N/A
$$

SUPPLEMENTAL OBSERVATIONS (EAST)

CITY           SKY/WX    TMP DP  RH WIND       PRES   REMARKS
TEXARKANA        N/A     72  68  88 CALM        N/A
LINDEN           N/A     73  70  88 CALM        N/A
CADDO LAKE       N/A     72  70  94 CALM        N/A
GILMER           N/A     73  70  88 CALM        N/A
HENDERSON        N/A     72  68  88 SE1         N/A
LUFKIN           N/A     73  72  94 MISG        N/A
N SABINE NF      N/A     72  68  88 MISG        N/A
$$

SUPPLEMENTAL OBSERVATIONS ARE A COLLECTION OF AUTOMATED INSTRUMENTS
THAT ARE MAINTAINED BY A VARIETY OF FEDERAL AND STATE AGENCIES.
CERTAIN ELEMENTS...SUCH AS HUMIDITY VALUES AND SUSTAINED WIND
SPEEDS...MAY BE APPROXIMATED.



USA.gov is the U.S. government's official web portal to all federal, state and local government web resources and services.